This is the latest recevied weather packets stored in our database for station/object IU1OLT-7. If no packets are shown the sender has not sent any weather packets the latest 10 day(s).
| Time | Temp. | Humidity | Pressure | Rain* | Wind** | Luminosity | Snow |
|---|---|---|---|---|---|---|---|
| 1777008906 | 13.33° C | 18% | 1021.4 hPa | - | - | - | - |
| 1777008006 | 12.78° C | 20% | 1021.3 hPa | - | - | - | - |
| 1777007106 | 12.78° C | 27% | 1021.3 hPa | - | - | - | - |
| 1777006207 | 13.33° C | 21% | 1021.2 hPa | - | - | - | - |
| 1777005307 | 13.89° C | 15% | 1021.1 hPa | - | - | - | - |
| 1777004406 | 13.89° C | 12% | 1020.9 hPa | - | - | - | - |
| 1777003507 | 13.33° C | 13% | 1020.8 hPa | - | - | - | - |
| 1777002606 | 13.89° C | 12% | 1020.9 hPa | - | - | - | - |
| 1777001706 | 13.89° C | 12% | 1021 hPa | - | - | - | - |
| 1777000806 | 13.33° C | 15% | 1021 hPa | - | - | - | - |
| 1776999907 | 13.33° C | 12% | 1020.9 hPa | - | - | - | - |
| 1776999006 | 14.44° C | 9% | 1021 hPa | - | - | - | - |
| 1776998106 | 14.44° C | 10% | 1021.1 hPa | - | - | - | - |
| 1776997206 | 13.89° C | 11% | 1021.1 hPa | - | - | - | - |
| 1776996307 | 14.44° C | 10% | 1021.1 hPa | - | - | - | - |
| 1776995406 | 14.44° C | 11% | 1021.2 hPa | - | - | - | - |
| 1776994506 | 14.44° C | 9% | 1021.1 hPa | - | - | - | - |
| 1776993607 | 14.44° C | 7% | 1021.2 hPa | - | - | - | - |
| 1776992706 | 15° C | 7% | 1021.2 hPa | - | - | - | - |
| 1776991806 | 15° C | 6% | 1021.1 hPa | - | - | - | - |
| 1776990938 | 15.56° C | 6% | 1021.2 hPa | - | - | - | - |
| 1776990906 | 15.56° C | 6% | 1021.2 hPa | - | - | - | - |
| 1776990006 | 15° C | 6% | 1021.3 hPa | - | - | - | - |
| 1776989106 | 15° C | 6% | 1021.4 hPa | - | - | - | - |
| 1776988206 | 15° C | 11% | 1021.4 hPa | - | - | - | - |
* Rain since midnight (hover to see other rain measurements)
** Current wind speed in m/s (hover to see current wind gust speed)